Retour au catalogue

STARLINK-3760

ActifCommunicationsVLEO
NORAD 52298·PAYLOAD·🇺🇸 United States

Lancé Apr 21, 2022 depuis Cape Canaveral Space Force Station

Loading…

Prochains Passages (prochaines 24 heures)

TLE

FraisSource: CelesTrak SupGP

Époque: Sep 15, 2026, 02:06 UTC

1 52298C 22041AP  26258.08798611  .00044534  00000+0  13160-2 0  2588
2 52298  53.1581 316.6680 0001260  87.8932 331.5029 15.34364139    10

Suivez STARLINK-3760 en temps réel avec AllMySat

Download on the App Store